Theta_e
289 283 281 284 286 285 283 281 280 281 285 282 281 281 284 287 284 282 282 282 282 282 284 285 286 286 286 286 286 286 286 285 285 283 282 282 282 283 284 285 287 287 288 289
284 281 287 288 288 285 282 279 279 282 285 282 280 281 282 283 282 281 282 281 281 281 282 284 284 284 284 284 284 285 285 284 284 283 282 282 281 282 283 285 286 287 287 288
283 285 288 287 284 283 281 279 279 279 281 281 280 277 278 282 282 283 283 282 282 281 281 281 282 281 282 282 282 284 283 283 283 283 283 282 282 282 282 283 283 285 286 287
284 287 286 284 283 283 280 282 281 280 275 274 279 270 277 280 280 281 281 281 280 280 282 282 282 282 281 281 281 282 283 282 283 282 281 279 279 279 280 281 282 283 284 285
282 283 283 282 283 285 280 283 281 279 275 272 275 267 276 279 277 278 279 280 280 281 281 281 282 283 282 281 280 281 281 282 282 281 281 279 278 279 280 280 280 281 282 284
283 287 286 284 285 285 285 282 281 279 276 269 272 272 274 275 276 278 279 281 281 281 282 283 282 282 281 281 281 280 280 281 281 281 280 279 279 279 278 279 279 280 281 281
282 283 285 286 282 284 281 278 266 267 267 266 275 273 276 278 279 278 278 279 280 282 281 281 281 281 281 280 280 280 280 279 280 279 280 279 279 279 279 279 278 279 278 279
276 274 281 285 281 279 280 277 271 263 265 267 275 267 275 276 274 271 274 274 281 282 282 281 281 281 279 280 279 279 279 279 279 278 278 278 278 277 278 279 279 278 276 280
275 276 283 283 284 282 279 275 278 270 265 267 269 274 277 279 275 274 275 280 280 280 280 279 280 280 279 278 278 278 278 278 277 277 277 276 277 278 277 278 281 281 281 281
280 275 282 282 283 283 281 281 273 268 261 262 266 268 271 273 272 275 273 277 278 279 278 278 278 278 278 278 278 277 276 272 272 275 275 276 275 276 276 280 280 280 280 280
282 277 277 280 274 276 279 275 276 274 269 264 261 267 269 272 273 272 274 278 275 275 275 275 276 276 271 271 270 271 270 268 270 272 273 274 274 274 277 279 279 279 279 280
284 278 274 274 278 280 277 273 274 268 265 265 265 268 267 272 271 270 275 279 275 275 274 273 274 270 269 269 269 269 267 265 270 270 271 272 273 272 277 278 279 279 279 280
282 276 272 274 277 279 278 278 273 269 269 267 266 268 266 263 268 274 273 273 276 277 275 272 271 270 267 267 265 265 264 266 267 265 268 270 271 271 270 275 278 279 279 279
285 276 271 271 270 270 272 274 276 272 267 262 266 264 266 268 270 270 272 273 270 270 271 268 269 270 269 267 266 266 266 265 265 265 267 269 269 270 270 276 278 279 279 279
280 273 272 270 277 275 266 271 274 276 269 269 265 268 267 269 272 270 269 268 270 270 272 271 269 269 267 269 269 266 266 264 263 263 265 268 267 266 268 271 276 278 279 280
280 273 269 269 265 262 272 270 269 275 276 269 265 272 272 266 261 266 267 267 267 267 269 270 269 269 271 270 270 270 268 266 262 263 266 266 264 266 268 269 270 270 271 270
277 271 268 265 265 267 265 269 269 268 264 276 274 273 264 266 265 265 266 269 276 270 268 269 270 271 272 273 276 272 271 265 265 267 269 270 269 270 271 272 272 271 270 269
273 271 269 263 265 261 268 258 263 268 264 267 264 263 266 267 266 271 275 277 275 269 270 269 269 273 273 273 272 274 275 274 272 270 271 272 272 273 273 273 272 272 271 271
275 272 267 262 262 266 271 264 266 268 269 268 272 263 262 262 264 269 277 265 268 269 270 269 268 269 271 270 272 273 273 272 273 272 272 273 274 274 274 274 273 273 272 273
279 276 269 260 258 258 267 268 269 266 267 262 263 263 266 274 268 266 271 268 267 268 270 270 271 270 270 271 272 274 274 273 273 274 275 275 275 274 274 274 274 275 274 275
273 272 267 262 257 264 269 274 276 267 269 262 263 264 269 269 269 266 265 268 268 269 271 273 270 269 270 271 272 272 272 271 274 274 274 275 275 275 275 275 275 274 273 274
268 267 264 265 263 263 273 275 271 270 270 264 262 264 265 263 263 264 266 268 271 270 271 273 272 272 272 273 272 271 271 272 272 272 271 271 271 273 275 272 273 271 271 270
267 271 268 270 270 272 270 271 267 265 269 266 270 267 271 271 270 271 271 272 273 273 272 272 271 271 271 271 271 270 270 271 270 269 268 269 270 272 273 270 271 270 269 270
272 275 272 272 273 271 270 271 271 270 274 275 275 274 273 272 271 270 271 271 271 271 271 271 270 269 269 270 270 269 269 269 267 266 267 269 269 270 270 272 272 271 271 269
275 275 274 273 276 274 275 277 276 274 273 274 273 272 272 272 270 269 270 270 270 270 269 269 268 268 268 268 268 268 268 267 266 267 268 268 269 269 270 271 272 272 273 274
277 275 274 273 279 279 279 279 277 275 274 274 273 272 272 272 270 269 269 269 268 267 267 266 266 266 266 266 266 266 266 266 265 266 267 268 268 269 270 270 271 276 279 280
Wind_Speed
3 4 9 12 9 2 4 3 4 3 1 2 6 8 11 12 4 6 5 5 6 7 6 8 9 9 9 6 7 6 6 4 2 3 3 2 2 2 2 3 5 5 4 3
3 8 7 5 6 6 3 3 5 5 1 1 4 11 1 5 3 3 4 5 4 3 4 5 5 5 4 5 5 5 5 4 3 2 1 1 1 2 3 3 3 4 5 5
7 3 7 6 5 5 4 5 3 3 6 1 7 6 2 1 2 4 4 3 2 1 1 1 2 3 3 4 4 5 5 4 3 2 1 1 1 1 2 3 2 4 5 5
5 4 7 4 5 6 4 3 4 4 4 3 3 7 3 3 2 1 1 1 2 1 1 2 3 3 4 3 3 4 4 4 3 3 2 1 1 1 1 2 2 4 5 4
6 8 6 3 4 5 5 3 4 4 3 5 1 4 7 4 3 2 3 1 1 3 5 6 6 6 4 5 4 4 4 3 2 3 2 1 1 2 2 2 4 4 3 4
3 1 3 4 4 4 6 5 4 4 3 1 5 5 5 5 6 3 3 4 6 6 6 6 5 5 5 4 4 4 4 3 3 2 2 1 2 2 3 2 2 3 2 2
2 2 1 2 6 2 4 5 3 5 2 7 3 1 9 4 5 4 3 6 7 6 5 4 5 5 5 6 5 4 4 3 2 1 0 1 2 3 4 3 1 2 2 1
8 4 7 1 3 7 5 6 6 8 4 4 3 7 7 6 2 5 5 6 6 7 6 6 6 4 4 4 4 3 3 2 1 1 0 1 2 2 3 3 1 2 2 2
6 3 2 4 1 1 5 3 3 7 4 3 4 7 4 4 3 4 6 6 7 7 7 8 6 4 4 4 4 3 3 2 2 1 2 2 3 4 2 3 3 2 3 3
5 7 2 2 0 3 2 4 4 3 3 5 5 6 7 4 5 4 5 6 7 7 7 7 5 5 4 4 3 3 2 4 3 3 3 3 3 4 2 2 4 4 4 5
5 5 3 3 5 7 4 2 3 4 4 6 2 9 6 8 8 6 6 5 6 6 6 6 6 5 3 2 3 3 3 3 4 3 3 4 4 3 3 4 4 5 4 4
3 5 4 3 1 0 2 5 5 6 6 2 4 10 3 7 7 5 6 4 5 4 5 5 6 5 5 6 5 5 3 4 4 4 4 3 3 4 5 4 5 5 4 4
6 2 6 2 1 2 5 6 4 4 4 6 7 8 3 4 5 5 6 5 4 4 5 6 6 7 5 4 5 5 5 6 5 3 3 3 5 5 5 6 5 4 4 5
3 2 5 8 5 5 6 6 6 5 4 5 8 5 5 7 6 5 5 6 5 4 5 5 6 7 7 6 6 6 6 5 4 3 3 5 5 5 5 6 4 5 5 5
4 4 2 1 4 3 5 6 11 16 8 8 7 9 6 8 8 6 4 4 4 4 6 6 7 6 5 6 6 5 6 5 4 4 4 7 5 4 6 6 5 6 5 5
1 3 3 2 4 3 5 8 8 14 17 8 5 19 10 3 2 2 5 4 4 4 5 6 7 7 7 5 6 6 6 6 4 5 7 6 4 5 7 6 6 5 6 6
5 6 3 3 1 2 7 14 15 7 4 15 14 10 3 4 3 4 2 0 1 5 6 6 7 6 7 6 6 7 7 2 4 5 6 6 5 6 6 6 5 6 6 4
6 5 3 3 3 2 8 2 4 10 5 9 2 5 6 6 4 3 4 2 3 5 5 6 5 5 6 5 5 6 5 4 5 6 6 5 6 8 7 6 7 6 5 6
2 4 3 5 4 7 2 5 7 8 8 10 13 3 4 4 2 3 2 3 4 4 4 4 4 4 5 6 6 6 6 4 4 5 6 6 6 8 7 8 8 6 5 6
3 4 5 2 4 7 8 4 5 4 6 4 6 6 6 3 1 5 3 2 4 4 2 4 6 4 4 6 6 6 6 6 5 6 6 6 6 7 8 8 8 6 6 8
4 2 5 3 2 10 7 4 5 6 8 4 6 5 5 4 4 4 3 4 2 2 4 4 4 4 6 6 6 6 6 5 8 8 9 8 7 8 8 8 7 6 7 7
6 6 4 4 2 10 5 5 7 6 1 4 3 4 4 3 4 3 4 4 4 4 4 5 6 6 6 7 7 8 7 9 9 8 9 9 8 7 7 6 7 6 5 6
2 7 6 8 7 4 4 3 3 3 5 4 4 4 5 4 2 3 4 5 5 6 6 6 6 7 6 6 7 8 9 10 10 10 9 8 9 8 7 5 6 4 4 6
4 4 3 3 3 4 5 1 3 4 4 4 4 4 3 4 3 2 3 4 4 5 6 7 7 7 7 7 8 7 9 9 9 10 10 8 8 8 6 5 4 5 4 5
4 5 5 4 3 0 4 5 7 5 5 6 4 3 4 4 3 1 2 3 4 5 5 6 6 7 8 8 8 7 9 9 8 8 8 8 6 7 7 6 5 5 6 7
6 7 6 6 5 3 2 10 11 9 6 7 6 4 3 3 3 1 2 3 3 4 5 5 6 6 7 8 9 8 8 8 9 9 7 7 6 7 6 6 7 10 12 14
Wind_Direction
204 131 205 205 204 148 148 182 226 256 108 294 235 269 287 301 4 68 58 57 54 33 4 31 47 62 83 85 113 127 128 122 91 56 56 39 341 323 322 327 325 334 349 11
81 229 219 194 196 193 185 189 246 284 47 355 334 290 297 359 22 94 106 84 81 95 55 47 63 66 75 132 131 124 117 113 90 94 113 138 217 283 277 313 21 25 2 357
171 252 149 153 160 159 190 186 201 208 332 13 337 308 334 47 86 74 50 79 73 110 139 146 135 125 134 139 155 140 139 125 105 110 87 23 341 339 339 349 1 349 1 5
229 205 160 164 187 138 193 156 120 97 64 235 15 281 283 170 178 285 120 122 126 131 251 255 221 186 176 184 147 144 154 151 142 130 101 132 196 249 258 298 320 338 345 22
220 166 162 158 186 139 200 126 112 113 92 50 336 85 269 175 217 250 244 225 298 273 239 241 236 227 211 178 193 186 175 164 155 147 139 165 232 243 285 311 336 327 337 26
126 63 118 151 92 105 137 94 64 57 90 331 233 145 259 206 195 209 237 278 304 305 296 274 236 207 220 208 208 212 191 184 147 152 153 179 243 281 290 313 327 321 338 1
109 114 45 111 96 70 84 98 359 348 1 219 289 129 251 229 209 198 237 299 305 308 307 296 271 241 250 237 225 217 189 219 186 159 115 328 283 270 272 279 283 326 307 291
155 238 169 168 171 172 181 156 166 203 194 256 347 234 257 220 244 263 263 262 294 335 322 300 285 266 249 243 197 192 195 213 163 149 281 282 280 254 261 262 222 267 233 254
134 132 72 55 33 104 191 184 148 101 32 70 231 286 283 141 339 332 340 350 332 326 322 312 311 277 264 235 219 208 220 233 181 202 257 270 273 266 247 264 260 275 268 278
181 109 181 148 102 29 137 160 84 359 135 250 282 275 234 217 236 297 316 312 317 324 329 322 316 301 268 238 201 190 172 205 223 250 247 252 262 276 260 275 261 260 265 255
128 102 125 116 203 175 152 154 69 112 131 166 248 262 213 179 189 211 260 275 286 306 319 314 316 311 300 286 255 247 234 226 251 257 258 253 276 284 272 253 256 259 253 259
148 107 143 212 240 158 187 187 146 132 231 212 160 271 203 178 195 197 263 281 278 271 304 315 333 315 300 284 280 264 262 246 247 251 249 269 297 285 262 264 253 252 257 258
174 170 122 130 174 208 218 181 143 135 90 204 149 259 336 282 289 244 245 267 271 293 333 333 346 338 314 303 284 269 253 248 248 239 261 278 264 265 268 264 251 259 260 265
90 127 166 187 186 138 189 185 172 138 142 191 227 269 285 257 237 282 259 258 262 278 315 313 332 328 322 323 301 286 274 244 245 246 236 257 253 253 255 257 262 266 256 258
111 174 103 11 84 143 182 186 194 210 199 183 235 210 229 219 223 232 233 278 289 291 344 338 317 312 298 317 318 296 267 249 222 226 239 250 250 253 263 266 249 254 250 252
28 124 94 332 2 79 246 239 227 223 236 254 234 280 205 235 264 263 260 264 271 281 300 316 305 316 313 312 309 302 291 268 180 223 241 250 255 255 252 249 246 257 264 265
142 135 102 256 56 93 302 224 197 214 243 217 231 230 189 242 246 250 344 40 308 289 284 303 304 306 303 309 321 311 301 268 219 233 244 243 245 250 247 246 240 242 247 243
136 115 100 168 45 297 240 203 178 206 234 217 290 231 204 192 225 174 166 109 317 275 281 293 291 317 306 311 312 304 299 279 249 249 251 240 235 249 250 241 241 245 232 239
110 123 116 140 203 288 296 218 164 161 270 200 217 207 236 267 111 250 223 209 225 250 271 257 273 277 305 315 311 309 308 298 282 274 264 254 239 247 244 243 244 236 231 242
123 88 112 96 139 215 241 249 177 138 295 208 164 187 176 176 36 255 263 287 288 297 282 304 315 295 314 320 322 328 328 327 319 313 297 268 254 247 250 247 246 242 230 250
146 138 172 171 213 285 239 203 159 91 239 184 166 170 164 180 198 219 292 337 306 282 321 335 322 314 307 317 335 336 332 341 330 324 314 302 283 264 256 256 244 238 239 245
154 146 184 133 163 269 168 88 160 211 37 154 185 181 153 193 299 318 322 323 353 347 346 352 340 337 333 347 344 341 336 330 322 316 311 304 296 288 281 253 257 244 240 248
227 179 182 186 212 224 222 184 230 156 144 207 150 185 160 151 110 16 350 7 4 1 348 346 334 331 340 347 344 336 329 327 323 317 308 304 303 296 287 269 266 255 230 247
244 171 198 78 275 222 202 204 160 171 140 142 119 131 122 120 86 35 355 11 354 352 347 339 334 336 339 346 338 333 326 327 319 313 313 312 313 309 296 278 262 254 246 241
196 134 195 264 255 323 214 204 158 139 116 115 101 117 123 123 101 63 354 3 345 336 338 336 334 332 330 335 333 332 331 328 319 314 312 315 313 309 306 291 273 262 251 243
184 190 176 218 208 177 202 173 150 149 157 153 139 126 98 97 115 49 8 359 336 326 330 328 325 324 327 330 327 327 328 325 319 319 320 318 315 313 309 307 307 301 304 299